Humidity-temperature Sensor

Selected Measurement Type: Relative Humidity

 
Relative Humidity [%]     6 entries per hour
Showing data from 5/23/2024 (12:00:00 Z) to 5/22/2024 (00:01:00 Z)
Previous Next [ Day | 3-Days | 7-Days ]
First Last
Prev [ Day | 3-Days | 7-Days ] Next
First Last

Start Time:     :
End Time:     :     
Time (in GMT) :00 :50 :40 :30 :20 :10
Previous Next [ Day | 3-Days | 7-Days ]
First Last
Prev [ Day | 3-Days | 7-Days ] Next
First Last


123 => good data
MM => data is determined as missing
-- => data not received/configured
Back to Top Back to Top
5/23/2024 12:00 to 11:10 83.86 84.99 84.68 84.70 85.46 83.82
5/23/2024 11:00 to 10:10 85.05 84.89 84.70 84.25 84.87 84.60
5/23/2024 10:00 to 9:10 84.43 85.13 85.83 85.13 84.23 85.42
5/23/2024 09:00 to 8:10 85.30 85.96 85.92 86.10 86.10 85.57
5/23/2024 08:00 to 7:10 84.76 84.04 85.85 84.91 85.34 84.76
5/23/2024 07:00 to 6:10 83.88 83.84 84.37 88.08 88.80 91.25
5/23/2024 06:00 to 5:10 87.62 84.50 84.04 84.21 83.26 84.43
5/23/2024 05:00 to 4:10 83.71 83.92 84.02 82.93 83.05 83.59
5/23/2024 04:00 to 3:10 84.15 85.44 84.87 86.62 85.26 85.44
5/23/2024 03:00 to 2:10 87.01 87.87 86.97 86.06 86.29 86.35
5/23/2024 02:00 to 1:10 86.82 86.97 85.98 86.64 86.82 87.13
5/23/2024 01:00 to 0:10 87.17 87.79 87.11 87.13 87.69 87.23
5/23/2024 00:00 to 23:10 86.74 86.76 86.53 86.43 85.92 87.21
5/22/2024 23:00 to 22:10 86.33 87.44 86.51 86.84 87.63 86.88
5/22/2024 22:00 to 21:10 86.22 87.36 86.55 86.88 85.87 86.00
5/22/2024 21:00 to 20:10 85.22 84.56 85.55 85.42 85.55 84.35
5/22/2024 20:00 to 19:10 84.60 84.31 84.85 85.40 84.91 87.17
5/22/2024 19:00 to 18:10 87.85 87.91 86.97 87.25 86.99 87.05
5/22/2024 18:00 to 17:10 87.21 88.14 88.63 91.00 91.70 91.25
5/22/2024 17:00 to 16:10 91.91 88.14 87.67 88.47 88.63 89.02
5/22/2024 16:00 to 15:10 90.63 89.73 90.01 89.71 92.24 92.65
5/22/2024 15:00 to 14:10 92.88 93.78 92.83 91.54 94.13 98.23
5/22/2024 14:00 to 13:10 98.19 96.40 96.40 96.97 95.39 93.21
5/22/2024 13:00 to 12:10 88.96 89.97 89.44 90.01 85.75 87.60
5/22/2024 12:00 to 11:10 86.57 85.07 84.04 85.38 83.53 84.08
5/22/2024 11:00 to 10:10 84.70 83.20 83.51 83.16 82.46 82.44
5/22/2024 10:00 to 9:10 84.19 84.93 84.50 83.75 83.75 84.29
5/22/2024 09:00 to 8:10 84.27 83.57 84.25 84.37 84.64 83.73
5/22/2024 08:00 to 7:10 84.10 84.35 83.07 83.53 83.49 83.30
5/22/2024 07:00 to 6:10 84.25 83.61 84.39 85.46 84.15 84.45
5/22/2024 06:00 to 5:10 84.45 84.56 83.79 85.28 83.59 83.47
5/22/2024 05:00 to 4:10 84.27 83.84 84.08 83.07 83.34 83.44
5/22/2024 04:00 to 3:10 82.79 82.52 82.13 82.89 83.34 84.68
5/22/2024 03:00 to 2:10 84.68 83.94 84.49 84.99 84.97 83.57
5/22/2024 02:00 to 1:10 83.57 85.73 85.09 84.60 84.50 84.00
5/22/2024 01:00 to 0:10 83.94 84.10 83.69 84.72 83.82 84.31